Location: Unspecified
(47.9110°N, 14.3980°E)
Time: 16:35:03
(UTC+00:00)

BREEZE-M DEB (TANK) - Pass Details

Date: 06 August 2020
Orbit: 321 x 16291 km, 49.4° (Epoch: 19 September)

Event Time Altitude Azimuth Distance (km) Brightness Sun altitude
Rises 19:29:12 0° 247° (WSW) 2,062 5.7 -9.3°
Reaches altitude 10° 19:30:39 10° 245° (WSW) 1,308 4.6 -9.5°
Maximum altitude 19:33:02 75° 159° (SSE) 491 1.9 -9.8°
Drops below altitude 10° 19:38:11 10° 74° (ENE) 2,805 5.6 -10.5°
Sets 19:42:56 0° 74° (ENE) 5,082 6.9 -11.1°
